sat.trackr.live / text

‹ back to catalog

AAC-HSI-SAT1

NORAD 56225 · 2023-054AZ

PAYLOAD ACTIVE UNKNOWN

§ Identity

Operator
Country
UK
Launch date
2023-04-15
Launch site
AFWTR
Launch vehicle
Mass (kg)
RCS (m²)

External: N2YO · Heavens-Above · Gunter

§ Orbital elements

Epoch: 2026-05-25T03:21:51.515712Z

Period
95.21 min
Inclination
97.3720°
Eccentricity
0.0009226
Mean motion
15.12426537 rev/d
Perigee alt
522.4 km
Apogee alt
535.2 km
Semi-major
6,906.9 km
B*
1.0032e-4
RAAN
22.3062°
Arg perigee
195.1290°
Mean anomaly
164.9666°
Rev number
17,188

§ Raw data

AAC-HSI-SAT11 56225U 23054AZ  26145.14017958  .00001681  00000+0  10032-3 0  99912 56225  97.3720  22.3062 0009226 195.1290 164.9666 15.12426537171880

JSON: /api/v1/satellites/56225 · /tle

For live sub-satellite position, see the globe view (requires WebGL).

§ Visibility from observer

Set your observer location to see the next 7 days of passes ≥ 10°. The values pass through the URL so the page stays shareable.

No JS? Fill the form by hand. The geolocation button needs JavaScript.